Wind_Speed
32 32 30 29 27 26 25 23 21 18 18 17 17 17 17 18 18 19 19 20 20 20 20 21 20 20 19 18 17 16 15 14 12 12 12 12 12 13 14 15 14 14 15 15 15 15 15 17 17 16 15 16 17 17 18 20 22 24 25 26 27 27 26 25 24 20 20 21 17 18 18 17 18 18 18 17 17 18 18 17 18 18 20 20 21
36 35 32 30 28 27 25 23 22 20 19 18 18 18 18 18 18 19 20 20 21 21 21 21 21 21 20 18 17 16 15 14 13 12 12 13 13 13 14 15 15 15 16 17 17 17 17 18 17 16 15 15 16 16 16 18 21 24 25 26 27 27 27 25 25 22 19 20 19 19 18 17 18 18 18 17 16 17 17 17 18 19 20 20 21
37 36 33 31 29 28 26 24 23 21 20 19 19 18 18 18 18 18 19 21 21 22 22 22 22 22 21 20 18 17 15 14 13 13 13 13 13 13 13 14 15 16 16 17 17 18 18 18 17 16 15 15 15 15 15 17 21 23 25 25 26 27 27 26 25 23 20 19 20 21 20 18 17 17 17 16 16 16 16 17 18 20 19 21 22
36 36 33 32 30 28 27 25 23 22 21 20 19 18 18 18 18 18 19 20 21 22 22 23 23 22 22 20 19 17 16 15 14 14 14 13 14 14 14 15 15 16 15 16 17 18 18 18 17 15 15 15 15 15 14 16 18 20 23 25 25 26 27 27 25 23 22 18 18 21 21 19 17 17 16 16 15 16 16 16 17 18 18 19 20
35 35 34 32 31 29 27 25 24 23 22 20 19 18 18 17 17 17 18 19 20 21 22 22 22 22 21 21 20 18 17 15 14 15 14 13 14 15 15 16 16 16 15 16 18 17 18 17 16 15 15 14 14 14 15 16 16 17 20 22 24 25 26 26 25 23 21 19 16 17 20 18 17 16 16 16 14 15 15 15 16 17 17 17 17
34 35 33 33 31 30 28 26 25 23 22 21 19 18 17 16 16 16 17 17 18 20 21 21 21 21 21 21 20 20 18 16 16 15 14 14 15 15 15 17 17 16 16 17 18 17 17 16 15 15 14 13 12 13 14 16 16 16 18 19 21 24 25 25 24 22 21 20 17 15 18 19 17 16 16 15 14 14 14 13 13 15 15 15 15
32 33 33 33 32 30 28 26 25 24 22 21 19 18 17 16 15 16 16 17 17 19 20 21 20 20 20 19 19 19 19 18 17 17 15 15 15 15 15 17 18 16 17 18 18 17 16 15 15 14 12 12 12 12 14 16 16 17 18 18 19 23 25 24 23 22 21 20 19 16 18 19 18 17 16 15 15 14 13 12 11 12 12 11 11
32 32 33 32 32 30 28 26 25 23 22 21 19 17 16 16 15 15 15 16 17 18 19 19 19 18 18 18 17 18 19 19 18 17 16 14 14 14 14 16 18 17 17 18 18 17 16 15 14 13 12 12 11 12 16 18 18 18 19 19 20 23 24 24 23 22 21 21 20 18 18 20 19 18 16 14 15 15 14 12 11 10 10 9 8
31 31 32 31 31 29 27 26 24 23 22 21 19 17 16 15 14 14 14 15 16 18 18 19 18 17 17 18 17 17 16 17 17 16 14 13 13 13 13 15 17 17 17 17 17 17 16 14 13 12 12 11 10 12 17 17 17 18 18 19 20 23 24 24 23 22 21 21 20 19 19 20 20 18 15 14 16 16 14 13 11 9 8 7 6
31 31 31 30 30 28 27 25 24 22 21 21 19 17 16 14 13 13 14 15 16 17 18 19 19 17 17 18 18 16 14 14 14 13 13 12 12 12 13 15 17 17 17 17 16 16 16 14 13 12 11 10 9 11 16 16 16 17 17 19 20 22 23 24 23 23 22 21 20 19 20 20 20 19 16 16 16 16 14 12 11 9 7 6 5
30 31 30 29 29 28 26 25 24 22 21 20 19 17 15 14 13 13 14 15 16 16 17 18 18 18 17 17 16 16 14 14 13 13 13 13 13 13 14 16 17 18 19 18 17 16 16 15 14 13 11 10 8 10 15 15 15 16 17 18 19 22 22 22 22 23 22 20 19 19 19 20 20 19 18 17 17 16 14 12 11 9 7 6 6
30 31 30 29 29 27 26 25 24 22 21 20 19 17 15 14 13 13 14 15 16 16 16 16 17 17 17 17 16 15 14 14 14 13 13 14 14 15 15 17 18 18 19 19 18 18 17 16 15 13 11 10 8 9 14 15 15 15 15 16 18 20 21 20 20 22 22 20 19 18 18 18 19 19 19 18 17 17 16 14 13 11 10 9 9
30 30 29 29 29 28 26 25 24 22 21 20 19 17 15 13 13 13 14 15 16 16 16 16 16 17 17 16 16 15 14 14 14 14 14 14 15 15 16 17 18 19 19 19 19 19 18 17 15 14 12 10 8 9 12 14 14 14 14 14 16 18 19 19 19 20 21 20 18 17 16 17 18 19 19 19 19 18 18 17 16 14 13 12 12
30 30 30 30 29 28 27 26 24 22 21 19 18 16 15 14 14 14 14 15 15 16 16 16 16 16 16 16 15 15 14 14 14 15 15 15 15 15 16 17 18 19 19 20 20 20 19 18 16 14 12 10 9 8 10 12 13 12 12 12 13 15 16 17 18 19 19 19 18 16 15 16 17 18 19 18 18 18 18 18 17 16 15 15 15
30 31 30 30 30 29 27 26 24 23 21 19 18 16 15 14 14 15 15 15 15 16 17 17 16 16 16 15 15 15 15 14 15 15 15 15 15 15 16 17 17 17 18 19 20 20 19 18 16 15 13 11 9 8 8 10 11 12 11 11 12 13 15 15 16 17 18 18 17 15 15 15 16 17 18 17 17 17 17 17 17 16 16 16 17
30 30 30 31 30 29 27 25 24 23 21 19 18 16 15 14 15 15 15 16 16 17 17 16 16 16 16 16 15 15 14 14 14 15 15 15 14 14 15 16 17 16 17 18 18 19 19 18 17 15 14 12 10 8 7 8 10 11 11 11 11 12 13 13 14 15 16 17 16 14 13 14 14 15 16 16 15 15 16 16 16 15 16 16 16
31 30 31 31 30 29 27 25 24 22 21 19 18 16 15 15 16 16 15 16 16 17 17 17 16 16 16 15 14 14 14 14 14 14 15 14 13 13 13 15 17 17 16 17 18 19 19 19 18 17 15 13 11 9 8 8 8 9 10 10 11 11 12 13 13 14 15 16 16 13 12 13 14 14 14 14 14 14 14 14 15 15 15 15 15
30 30 30 30 29 28 27 26 25 23 21 20 18 16 15 16 16 15 15 15 16 16 16 16 16 15 15 15 14 13 13 14 14 13 13 12 12 12 12 13 16 17 16 17 18 19 21 20 19 18 16 15 13 11 9 8 8 8 9 10 10 11 12 12 13 14 15 15 15 13 11 11 12 13 13 13 13 13 12 13 13 13 13 14 14
29 29 29 29 29 28 28 27 26 24 22 21 19 17 16 16 16 15 14 14 15 16 16 16 15 15 15 15 14 13 13 13 13 11 11 11 10 10 10 11 13 16 16 16 17 19 21 20 20 19 17 16 13 11 9 8 7 7 8 9 9 10 11 11 12 14 15 15 15 14 12 11 11 11 11 11 11 11 11 11 11 11 12 12 13
26 27 27 28 29 28 29 27 26 25 23 21 19 18 17 16 15 14 12 13 14 15 15 16 15 15 14 15 14 13 13 12 11 10 10 10 9 9 9 10 11 13 15 15 15 17 20 20 20 20 19 17 14 12 10 8 7 7 7 7 8 9 10 11 11 13 14 15 15 14 13 11 10 10 10 10 10 10 10 10 10 10 10 10 11
24 26 26 28 29 28 28 27 26 25 23 22 20 19 17 16 15 13 12 13 14 14 15 16 15 15 15 15 14 13 13 12 11 10 9 9 8 7 7 8 8 10 12 14 14 16 17 19 21 20 19 18 15 13 11 8 7 6 6 7 7 8 9 10 11 12 13 14 14 14 14 12 10 9 9 9 9 8 9 9 9 9 8 9 9
24 25 25 28 29 28 28 27 26 24 23 22 20 20 18 18 16 14 13 13 14 14 16 16 15 15 15 15 14 13 12 11 10 9 9 8 7 6 6 7 7 7 8 11 12 14 15 17 19 20 20 18 16 13 12 10 7 7 6 7 8 9 9 10 10 10 11 12 13 13 12 12 10 8 7 7 8 7 7 8 8 8 7 8 8
25 26 26 29 29 28 28 26 26 25 24 23 21 20 19 18 16 15 14 14 14 14 15 16 15 15 15 14 13 12 12 11 10 9 8 7 6 6 6 6 6 6 6 8 9 11 12 14 17 19 20 19 17 14 14 12 9 7 7 8 9 9 9 9 10 10 10 11 11 11 10 10 9 8 7 6 6 6 6 7 7 7 7 7 7
28 28 28 30 30 29 28 27 27 26 25 23 22 21 20 18 16 15 14 14 13 13 14 15 16 15 15 14 13 13 12 11 10 9 7 6 6 5 6 5 5 5 5 6 7 8 9 11 14 16 18 19 17 15 14 13 9 8 9 10 10 9 8 9 9 10 10 10 9 9 9 8 7 7 6 6 6 5 5 5 6 6 6 6 6
31 30 30 31 30 29 28 27 27 27 25 24 22 21 20 19 17 15 14 13 12 13 14 15 15 15 14 14 13 13 12 11 10 8 7 6 6 5 5 5 4 4 5 5 5 6 7 9 11 14 16 18 17 15 14 12 9 8 9 10 10 8 7 8 9 9 9 9 8 8 8 7 7 7 6 5 6 5 4 4 4 5 5 5 6
31 31 30 30 30 29 28 28 27 27 26 24 23 22 21 19 17 15 13 12 12 13 14 15 15 14 13 12 12 12 11 10 10 9 8 7 6 6 5 4 4 4 4 4 4 5 6 7 10 12 14 16 16 14 13 11 9 8 9 9 8 7 7 7 8 9 8 8 8 8 7 7 7 7 6 5 4 4 3 3 3 4 4 5 5
32 30 29 30 29 28 27 28 27 26 25 23 23 22 21 19 16 14 13 12 12 13 14 14 14 13 12 11 11 10 10 10 11 11 9 8 7 6 5 5 4 4 4 4 4 5 5 7 8 10 12 13 14 14 13 12 10 9 8 7 7 6 6 7 8 8 7 7 7 7 7 6 7 6 4 2 1 1 2 3 3 3 3 4 4
31 28 27 28 26 25 26 28 26 26 26 25 24 22 20 18 16 14 13 12 12 13 14 14 14 13 12 11 11 10 10 10 10 10 9 9 7 6 5 5 4 3 3 4 4 5 5 6 8 9 10 10 11 13 14 12 11 9 7 6 6 6 6 6 7 6 6 6 7 7 6 6 6 5 2 1 3 2 4 4 3 3 3 4 4
27 25 25 25 23 23 26 27 26 27 27 26 24 22 20 18 16 14 13 12 13 14 14 14 14 13 12 11 11 9 9 8 9 9 8 8 7 6 5 4 4 3 3 3 4 5 5 6 7 8 8 8 9 12 13 12 10 8 6 4 4 4 4 6 6 5 5 6 6 6 6 5 5 4 2 3 4 6 7 5 4 3 3 4 4
20 20 22 22 22 21 24 26 26 27 27 26 24 21 19 17 16 15 14 13 14 15 14 14 13 13 12 11 11 10 8 8 8 7 7 6 6 6 4 3 4 3 3 3 4 5 6 6 7 7 7 7 7 9 11 11 9 7 5 3 2 3 4 6 6 5 5 5 5 5 6 5 4 3 4 5 6 7 7 5 5 5 5 5 5
17 19 21 22 22 21 23 25 26 26 26 25 23 21 18 17 16 15 14 14 15 16 14 13 13 12 11 11 11 10 9 8 8 7 5 5 5 5 4 3 4 5 5 4 5 6 6 6 6 7 6 6 6 7 8 9 9 8 5 3 2 3 4 5 5 5 4 3 4 4 5 5 5 6 6 7 8 7 7 6 6 7 8 8 9
21 19 21 24 24 24 24 24 25 24 25 24 22 21 18 16 16 14 14 15 16 16 14 13 12 11 10 10 9 9 8 7 7 6 5 4 4 5 5 4 4 6 6 6 6 6 6 7 7 7 6 6 6 6 6 7 8 8 6 5 3 4 5 6 6 5 4 3 4 5 6 6 7 8 9 10 11 10 8 7 7 9 12 14 14
29 25 25 30 29 28 27 27 27 26 25 23 21 20 18 16 15 14 14 16 17 16 14 13 12 11 10 10 8 8 7 7 7 6 5 5 5 6 5 4 4 5 6 6 6 7 7 8 8 7 6 6 5 5 5 5 6 6 6 5 5 6 6 7 7 6 5 4 5 6 7 7 8 9 10 12 13 12 12 11 9 11 13 14 13
33 33 32 35 34 31 31 32 30 28 27 24 22 20 17 15 14 14 14 16 17 16 14 13 12 11 11 10 8 8 7 7 6 6 6 5 5 6 6 5 4 5 6 6 6 7 7 7 8 7 6 6 5 5 4 4 5 6 6 6 7 8 7 6 7 7 7 6 6 7 8 8 9 10 11 11 11 12 12 11 10 10 10 10 9
33 35 33 34 35 33 32 33 31 29 29 25 21 19 16 14 13 14 15 16 16 15 14 13 11 11 11 9 8 8 7 7 7 7 7 6 6 6 5 5 5 5 6 6 6 7 8 8 7 6 6 7 6 5 4 5 6 6 6 6 6 6 6 6 7 7 8 8 7 8 7 8 8 9 10 10 9 9 9 7 7 7 8 8 7
32 34 31 31 33 32 31 30 29 30 29 24 20 19 15 14 13 14 16 16 16 14 13 12 11 11 10 8 8 7 7 7 7 7 7 7 7 6 6 6 6 6 6 7 7 8 9 9 9 7 5 6 6 5 6 7 7 7 6 6 6 5 5 7 7 8 9 8 8 7 7 7 7 7 8 8 6 6 6 5 4 5 5 6 5
29 32 33 31 30 30 29 28 28 29 27 22 20 19 16 14 14 15 16 15 15 14 13 12 10 9 8 8 8 8 8 7 7 8 8 8 7 6 6 6 6 7 7 8 8 9 9 9 9 9 6 6 6 6 9 10 9 9 9 7 7 7 7 8 7 7 8 8 7 6 6 6 5 6 7 7 6 5 5 4 5 5 4 5 5
25 30 32 30 29 29 28 28 28 27 25 22 20 19 16 15 15 15 16 16 15 14 13 12 10 9 8 8 9 8 8 8 8 8 9 9 8 8 7 6 7 8 7 8 9 10 10 9 8 9 9 7 7 9 11 11 11 11 11 10 10 9 8 7 7 6 7 7 6 6 5 5 5 5 5 6 5 5 4 4 4 4 4 4 4
24 27 30 30 29 29 29 28 28 26 25 22 21 20 17 16 16 17 17 16 15 13 13 12 11 9 8 9 8 7 8 8 8 9 9 9 8 8 7 7 9 8 7 8 9 10 10 10 8 9 11 11 9 10 11 11 12 11 11 11 11 10 8 7 7 7 7 7 6 6 5 4 4 4 3 4 4 4 3 3 2 3 4 4 4
25 26 30 31 30 30 30 29 28 26 24 23 23 22 19 18 18 18 18 16 14 13 13 12 11 9 9 9 7 7 8 8 7 8 9 10 9 8 8 9 10 9 8 8 9 9 10 11 10 9 12 14 12 11 10 11 12 13 12 12 12 11 9 8 7 7 6 6 6 5 5 4 3 3 2 3 2 1 0 1 2 3 4 4 4
27 28 30 30 30 30 30 30 28 25 24 24 24 23 22 21 20 19 17 15 14 14 14 13 11 10 9 8 7 7 8 7 6 6 9 11 10 9 9 9 9 9 9 9 9 9 10 12 11 10 12 14 13 11 10 11 13 15 14 13 12 11 10 8 7 7 6 5 6 6 4 3 4 4 3 3 1 1 1 0 1 2 3 4 5
28 28 29 29 29 29 28 29 26 24 24 25 25 23 22 21 20 19 17 15 14 14 14 12 11 10 9 8 7 7 7 6 6 7 9 10 9 8 9 9 9 10 10 10 10 10 11 12 11 11 12 12 13 13 12 13 13 14 14 14 13 11 10 9 8 8 7 7 8 7 6 6 7 7 6 5 4 4 4 3 3 4 4 6 6
29 29 29 28 28 27 28 28 25 24 25 25 25 23 21 20 18 17 16 14 14 14 13 12 11 10 10 9 7 7 7 6 7 7 8 8 7 7 8 9 9 10 10 10 11 11 12 13 11 10 11 12 13 13 13 13 12 12 12 12 12 13 12 10 10 11 10 10 10 9 8 8 8 8 7 7 6 6 6 6 5 6 6 6 7
31 30 31 30 27 25 27 27 24 24 25 25 24 22 21 19 17 16 15 14 14 14 14 12 11 11 10 9 8 8 8 7 7 7 7 8 8 8 9 9 9 9 10 10 10 11 12 12 12 11 10 10 12 14 14 12 10 10 11 11 12 13 12 12 13 14 12 11 11 10 9 9 8 8 8 7 7 7 7 7 7 7 7 6 7
31 29 30 30 26 24 26 26 24 25 25 24 23 22 22 20 18 18 17 16 16 15 15 14 13 12 10 9 8 8 7 6 6 6 7 8 8 9 9 9 9 9 10 10 9 10 12 12 12 12 10 8 9 12 13 12 10 9 10 11 11 9 12 15 14 13 11 10 10 10 10 10 10 10 9 9 9 9 9 8 8 7 7 7 8
32 30 29 28 24 25 26 25 25 25 24 23 22 22 22 21 21 21 20 19 18 17 16 15 13 11 10 9 9 8 7 6 6 7 7 8 8 8 8 9 9 9 11 11 10 11 12 12 12 13 11 8 7 9 12 12 11 10 9 9 7 6 11 17 14 12 12 9 9 10 10 11 11 10 10 11 11 10 10 9 8 7 7 8 8
32 31 30 27 23 25 27 26 25 25 24 23 23 23 23 22 22 21 20 19 18 17 15 13 11 10 10 10 9 9 8 7 7 7 7 8 8 7 7 8 9 9 11 12 11 11 12 13 12 12 12 10 8 9 10 12 11 11 11 9 5 3 9 14 12 13 14 11 9 9 11 11 11 11 11 12 12 11 10 9 9 8 8 8 8
31 30 29 26 23 25 27 26 25 25 25 24 24 24 23 23 23 21 19 18 16 15 14 13 12 11 11 10 10 10 9 9 8 7 7 8 8 7 7 8 8 9 11 11 11 11 13 14 12 13 13 11 9 8 9 11 11 10 11 11 7 4 9 13 11 11 13 15 13 11 12 13 12 12 12 12 11 10 9 9 9 8 8 7 6
30 29 27 24 22 25 27 26 26 26 26 24 23 23 22 22 22 20 19 18 16 14 13 14 14 12 11 11 11 10 9 9 8 7 7 7 8 7 7 7 7 8 10 11 11 12 14 14 13 13 13 12 11 10 9 10 10 9 10 12 9 6 10 14 13 11 12 15 15 14 14 14 12 12 11 10 10 9 8 8 8 7 7 6 6
30 28 25 23 23 25 26 26 27 27 25 24 23 23 22 21 21 21 20 19 17 15 15 15 14 13 12 11 11 11 10 9 8 8 8 7 7 7 7 7 8 9 10 10 11 12 13 13 13 12 12 12 11 11 11 11 9 9 10 11 10 8 11 15 16 13 12 11 13 16 15 13 12 12 11 10 10 10 9 9 8 7 7 7 8
29 27 25 24 24 25 26 26 27 27 25 24 24 23 22 22 22 21 20 18 17 16 15 15 13 12 12 11 11 11 11 10 9 8 7 7 7 7 7 7 8 8 8 9 10 10 11 12 13 12 11 11 11 12 13 12 11 11 11 11 10 9 8 11 14 14 13 10 12 17 16 12 11 10 11 11 10 10 11 10 10 9 9 10 10
Wind_Direction
170 171 171 169 169 167 165 163 160 157 153 148 146 144 143 145 150 155 157 158 157 157 157 156 155 154 152 151 147 144 142 140 136 131 127 125 127 127 123 119 116 113 113 113 109 107 108 108 104 102 101 99 97 96 96 91 88 87 81 74 72 70 70 71 73 81 95 99 102 102 96 97 100 101 106 110 105 103 101 93 93 94 94 96 96
167 170 170 167 168 166 164 162 160 156 151 148 146 145 143 143 146 151 155 156 157 157 158 157 156 155 153 151 149 148 146 142 138 135 132 132 134 131 126 122 116 111 112 112 109 109 108 107 105 105 104 103 101 98 98 95 90 86 78 73 71 69 68 68 69 71 83 100 108 106 101 98 101 106 109 112 109 106 102 96 94 93 94 95 94
164 168 168 166 166 165 163 162 160 156 151 147 146 146 143 142 143 147 152 154 156 157 157 157 156 156 155 153 152 151 147 143 139 138 139 139 138 134 129 122 115 112 114 115 112 113 111 108 107 106 104 103 102 100 103 101 94 87 79 73 69 68 67 66 66 66 73 94 112 115 109 104 106 108 110 115 116 111 108 102 94 90 91 92 92
164 166 166 165 165 164 163 163 161 156 151 148 147 147 144 142 142 146 151 154 155 156 158 158 158 157 155 152 151 149 144 140 138 137 140 141 138 135 131 123 117 117 118 118 119 117 114 111 109 109 107 104 103 104 105 101 92 85 81 75 68 67 66 64 64 65 68 81 106 117 115 113 113 112 117 124 125 122 116 107 101 94 89 90 91
165 165 165 164 163 164 163 164 162 157 153 150 149 147 145 144 143 143 147 153 156 157 157 158 158 158 155 150 147 143 140 138 136 134 135 139 136 134 133 128 120 120 121 122 125 121 116 114 113 114 113 110 106 105 103 99 89 80 80 77 69 66 65 63 62 63 65 70 86 111 118 119 120 120 126 132 135 132 124 114 113 108 101 99 99
166 165 165 163 163 163 164 165 163 159 156 151 149 147 146 145 145 143 142 148 153 155 154 154 153 154 154 152 149 145 143 143 142 142 145 147 142 138 134 128 121 121 122 125 128 124 121 119 118 118 116 114 109 107 102 97 90 82 80 78 71 67 65 62 61 62 63 65 69 92 109 113 116 120 125 133 141 140 134 125 119 117 114 112 107
168 166 165 164 163 163 165 166 164 162 158 153 150 149 148 147 147 144 142 144 147 151 152 151 150 151 152 150 148 144 143 146 151 156 159 156 150 147 138 127 124 124 124 128 129 126 125 122 120 120 116 113 110 106 98 93 91 86 82 80 74 67 65 62 61 62 64 64 62 72 93 102 106 113 121 129 142 146 142 138 128 125 121 111 102
169 168 166 164 163 163 165 166 165 163 160 155 152 151 151 150 149 148 146 145 147 150 153 153 150 147 146 143 141 142 144 151 159 162 162 156 153 152 140 129 129 130 128 130 130 129 128 126 125 122 119 114 110 101 92 91 90 86 83 80 76 69 64 62 60 62 64 64 60 62 78 90 96 105 113 116 134 146 145 150 144 132 122 110 100
170 169 166 165 164 163 164 165 165 165 162 157 156 155 153 153 152 152 149 148 149 152 154 153 146 143 146 145 144 145 150 157 159 156 154 150 150 145 135 128 130 132 131 132 132 133 133 133 130 125 123 117 112 101 93 92 89 86 83 79 76 70 65 62 60 62 65 64 61 60 67 79 87 96 101 103 122 141 148 153 149 140 130 117 105
171 168 167 166 164 164 164 165 166 166 164 160 159 158 156 157 154 153 153 151 151 153 155 152 146 148 152 149 146 145 145 148 146 143 142 139 136 129 123 125 131 136 135 135 135 135 136 135 132 129 127 121 115 104 97 96 92 88 82 79 77 72 67 62 59 62 65 64 63 63 65 72 80 86 92 97 111 127 140 149 147 147 140 121 110
172 168 167 166 165 165 165 166 168 168 166 163 161 161 160 160 157 154 155 152 151 151 152 150 148 150 149 147 145 142 140 138 137 136 134 131 129 125 122 126 135 141 140 140 138 137 137 136 135 133 130 124 118 103 99 99 94 89 83 79 78 74 70 64 58 59 62 64 63 63 65 70 76 83 89 94 100 109 121 129 133 135 131 119 110
172 168 166 166 166 166 167 169 170 170 168 166 163 162 162 162 159 156 156 152 149 148 145 145 145 146 145 145 145 141 140 138 136 133 130 129 128 127 125 129 140 145 145 143 141 140 140 140 139 137 136 132 124 106 102 103 97 92 87 81 77 74 72 67 60 57 59 61 63 64 64 68 74 81 87 90 94 98 104 109 112 116 115 110 104
170 167 167 167 168 168 169 171 171 172 171 168 165 163 164 163 159 157 156 150 147 145 142 141 141 141 141 142 141 139 139 136 133 129 127 128 126 127 125 130 140 146 148 147 146 147 147 146 145 145 145 143 135 117 109 107 103 97 91 84 77 74 73 71 64 59 58 58 63 67 67 68 71 78 84 87 90 92 95 98 100 102 104 103 101
170 168 169 169 170 170 171 172 173 174 173 170 167 164 165 163 159 157 154 149 145 143 141 140 140 139 139 138 139 137 136 133 129 126 125 125 126 127 125 127 136 144 150 151 152 153 153 153 152 152 154 155 148 133 118 113 109 102 95 88 80 75 73 72 67 63 60 58 60 65 69 70 73 79 82 84 87 91 93 94 95 97 99 100 99
172 171 170 171 171 171 173 172 174 175 174 172 168 165 165 162 160 157 153 150 146 145 143 143 143 142 140 138 137 135 134 130 127 126 125 126 127 127 126 126 130 138 149 154 157 158 159 158 158 159 162 166 162 151 132 121 114 107 101 93 84 79 75 71 67 64 63 60 60 64 68 70 73 79 82 83 87 92 94 95 94 95 96 96 95
173 173 171 172 172 172 173 173 175 176 175 173 169 166 165 162 159 158 155 153 150 149 146 144 145 144 142 140 137 135 133 129 128 128 127 128 128 127 126 127 128 131 143 153 159 162 165 165 165 166 170 176 175 167 151 133 121 112 107 101 91 84 78 70 65 64 66 64 61 64 69 71 73 80 84 86 88 90 93 95 94 93 92 92 91
174 174 173 173 172 172 172 173 176 177 176 174 169 167 166 163 161 160 158 155 154 153 149 146 146 145 142 140 139 137 134 131 130 129 127 128 129 128 126 126 128 129 137 148 158 167 171 171 171 172 176 183 183 178 167 148 129 118 114 108 97 88 80 71 65 65 67 67 64 65 72 75 73 77 83 86 87 89 90 92 92 91 90 90 90
174 175 173 173 172 172 173 173 176 177 177 173 169 169 166 164 163 163 160 157 157 156 153 150 150 148 144 141 141 140 137 135 133 130 126 125 128 129 127 126 128 131 137 146 157 169 175 176 176 177 181 186 188 185 178 158 139 128 119 111 100 89 82 75 67 68 69 70 69 67 72 78 76 75 78 81 84 87 87 87 88 89 90 90 90
173 174 173 173 172 173 174 175 178 178 177 173 170 169 167 167 166 165 161 158 158 156 155 154 154 151 147 145 143 143 140 138 135 132 128 128 133 133 129 128 130 132 138 146 156 169 178 180 180 181 184 189 189 189 187 168 150 137 125 115 104 92 85 80 72 70 71 71 70 68 70 81 86 80 78 80 81 84 85 86 87 88 89 88 88
169 171 171 173 174 175 176 177 179 178 177 173 171 168 166 168 167 167 162 159 158 155 156 156 156 154 152 148 145 146 144 142 141 139 137 139 140 136 134 135 134 134 138 147 156 168 178 183 184 184 186 190 189 191 193 179 159 147 133 121 110 99 91 86 78 73 71 70 69 68 70 80 90 88 83 84 84 85 85 87 88 87 88 88 88
166 170 171 174 176 177 177 179 179 177 176 173 171 167 165 168 167 167 165 163 161 158 158 157 157 156 154 149 146 148 147 146 145 145 144 144 143 141 146 144 140 141 142 147 155 165 175 184 188 188 189 192 190 190 196 191 171 153 141 132 119 107 97 89 81 75 71 69 69 69 69 73 87 94 89 88 89 88 87 87 86 85 85 85 87
165 170 172 176 177 177 178 178 177 176 176 173 171 168 166 169 169 170 169 167 164 162 161 158 159 156 151 148 146 149 147 145 144 146 148 148 151 156 158 150 146 149 148 147 152 162 171 181 190 193 194 195 192 189 195 198 182 161 150 141 124 110 100 90 84 76 70 68 68 71 69 70 80 96 101 96 93 91 89 87 86 85 84 83 83
167 172 175 178 178 178 179 179 178 176 176 174 172 171 169 170 172 174 174 171 166 164 162 159 158 154 149 148 147 148 145 144 146 148 152 156 162 166 160 152 151 149 147 146 148 157 167 178 189 195 197 196 193 191 196 201 191 170 155 141 126 112 98 88 83 76 69 64 66 70 72 72 75 95 113 111 104 103 98 93 92 88 86 85 83
172 176 177 179 179 179 179 179 179 177 176 175 173 172 171 172 175 179 181 176 165 160 161 157 155 152 151 150 150 149 148 148 148 149 153 162 166 164 156 148 146 142 138 141 144 151 162 174 185 194 197 197 195 193 196 199 192 170 151 136 123 114 99 84 78 73 69 67 68 69 72 74 73 90 113 128 124 119 114 107 102 95 90 85 81
177 179 180 179 179 180 180 180 179 177 175 176 175 174 174 175 179 186 186 177 164 158 159 157 154 153 153 153 153 152 150 147 141 143 148 156 159 153 146 135 129 130 130 131 137 145 159 173 182 192 197 197 194 191 192 194 187 165 148 133 123 115 99 85 76 73 73 72 72 70 68 69 72 81 92 121 134 131 130 124 111 98 89 79 75
180 181 181 180 181 181 180 180 179 177 176 176 176 176 177 177 182 188 185 175 165 160 159 157 154 154 156 155 155 153 148 144 140 141 144 148 149 142 136 130 125 124 121 119 128 143 157 172 181 190 196 196 190 184 183 186 185 171 154 140 128 116 100 89 83 79 79 75 73 71 70 71 80 88 85 99 127 135 143 141 122 99 83 71 68
183 183 183 182 182 179 179 181 180 177 176 177 179 179 179 180 185 187 182 176 166 161 159 155 153 153 154 151 150 149 147 148 145 142 144 145 145 143 142 138 132 125 117 116 125 137 152 172 181 189 193 190 184 179 178 182 185 181 169 153 135 117 101 91 85 83 83 78 73 70 73 79 89 101 106 101 69 98 146 152 132 104 87 73 64
184 182 184 185 181 179 180 182 181 178 177 179 182 181 180 182 186 186 182 178 168 163 159 155 155 153 151 150 148 147 148 150 147 143 145 147 146 148 149 148 145 136 129 122 120 125 142 169 180 185 184 178 176 177 179 182 184 182 172 155 132 115 100 91 87 84 81 73 71 72 77 89 96 107 130 305 350 64 124 140 133 112 90 73 63
181 182 184 184 182 183 183 183 182 180 180 182 183 182 182 185 187 187 184 179 169 164 160 159 158 154 155 154 151 149 151 156 149 142 144 148 149 150 150 157 162 160 151 135 123 125 141 165 177 178 172 167 172 178 182 185 183 178 169 156 127 109 97 97 97 88 78 69 73 79 84 96 105 101 68 41 52 87 108 110 104 90 76 66 59
174 180 183 185 189 190 184 185 186 184 184 183 183 182 182 186 186 187 187 178 171 167 163 163 161 159 162 159 157 158 159 162 153 144 144 148 152 155 155 160 176 181 173 161 151 146 149 162 174 173 168 167 171 180 187 191 189 188 186 176 120 111 114 114 110 95 80 72 80 85 89 96 103 93 66 69 81 92 93 85 78 74 70 69 66
185 187 186 190 193 194 190 190 190 185 186 184 183 183 181 185 186 187 186 177 173 170 167 167 165 166 168 165 163 164 162 161 158 155 153 152 158 165 166 166 184 193 187 179 165 158 159 164 169 168 168 171 175 180 186 196 202 205 207 199 154 140 139 130 121 108 92 78 86 87 92 95 88 84 78 81 92 96 86 70 66 76 83 80 78
195 194 195 199 196 196 195 195 194 190 189 187 185 185 181 184 186 186 184 177 176 174 171 170 169 171 173 170 167 165 163 161 161 164 167 168 173 182 183 169 181 192 191 185 171 166 172 174 171 166 167 172 178 181 180 191 199 203 203 195 183 176 162 146 136 128 116 95 91 87 90 87 78 86 88 85 92 99 99 88 75 81 89 85 81
195 196 199 200 198 198 198 197 198 196 196 192 189 186 182 185 187 185 182 178 178 177 173 171 172 175 175 174 173 172 172 171 167 169 174 175 180 189 187 172 171 182 186 186 175 170 171 175 178 175 175 176 178 176 177 183 180 182 187 191 199 195 181 165 150 136 123 105 97 91 88 83 83 94 98 94 94 96 95 95 95 96 94 87 80
196 200 201 199 196 197 196 197 198 198 199 197 192 185 180 186 187 184 183 181 180 177 174 172 175 178 177 179 182 183 183 180 175 173 176 174 176 181 180 174 169 171 181 184 173 166 162 164 174 177 174 173 171 167 172 170 156 158 169 182 196 195 188 171 148 132 123 113 105 98 91 91 93 98 103 102 96 91 87 88 96 99 90 81 78
199 203 206 203 198 196 194 194 194 194 199 197 190 183 180 185 186 184 183 182 181 178 173 173 178 180 182 187 191 191 186 183 181 179 180 180 180 180 176 179 180 175 182 183 171 162 156 149 153 163 163 162 161 154 147 142 142 151 166 179 190 194 183 159 139 128 123 115 108 102 99 100 101 102 104 101 93 89 91 93 96 93 81 73 69
205 207 209 206 201 199 197 194 191 191 196 195 186 181 180 182 184 184 183 182 182 180 178 180 183 183 189 197 196 194 188 183 184 185 188 187 188 188 179 180 188 186 183 182 174 162 156 148 142 147 159 164 158 143 131 130 138 152 163 174 180 178 160 141 130 126 121 115 108 104 101 100 101 107 107 105 104 103 101 102 95 85 77 64 51
207 210 210 207 203 202 199 195 194 192 193 192 185 181 179 179 182 183 183 184 184 185 187 189 187 187 197 204 199 195 191 188 189 193 196 192 190 193 187 185 190 189 182 179 175 163 155 155 151 150 156 165 159 143 134 132 135 142 141 143 149 144 137 135 136 134 126 121 116 111 108 104 105 111 112 116 122 115 105 103 93 81 74 65 51
208 210 211 211 207 203 199 196 198 198 194 190 185 180 178 179 181 183 185 186 187 189 191 190 190 193 204 212 208 201 197 198 196 198 202 199 193 193 198 199 193 188 183 180 175 165 156 157 163 158 150 146 147 142 136 133 133 135 133 132 137 135 132 139 144 142 139 136 133 132 127 120 120 115 113 120 120 112 104 96 82 64 55 56 41
215 212 213 215 210 205 204 201 201 199 194 189 185 181 180 182 182 184 187 189 191 190 188 190 193 198 211 221 220 212 211 208 202 203 205 203 200 201 203 196 191 189 186 181 176 169 160 155 162 163 149 138 138 140 138 138 138 135 133 132 133 132 131 138 143 145 148 151 151 153 157 155 145 134 126 129 123 114 101 72 42 17 19 24 18
219 216 215 217 212 206 206 207 205 199 193 188 185 182 182 184 185 186 187 189 190 188 188 192 196 202 218 228 221 209 214 212 205 208 206 205 206 204 195 186 187 188 184 182 177 173 165 157 157 162 150 139 139 143 144 146 142 136 130 126 125 126 127 130 135 138 141 147 152 161 173 168 154 153 160 163 155 97 9 331 339 351 7 14 21
219 216 216 218 215 208 207 209 207 198 190 187 185 184 184 185 186 188 189 187 186 189 191 194 200 207 217 222 208 198 206 206 199 200 197 201 204 198 189 183 183 182 178 176 175 173 169 163 157 157 151 143 143 146 149 151 146 139 133 127 124 123 122 120 123 128 130 132 138 148 150 119 114 124 136 161 170 68 87 7 6 18 36 39 35
221 218 217 219 216 211 209 210 206 196 189 186 185 185 187 186 186 187 186 184 184 190 193 193 199 207 211 213 204 193 198 198 192 186 185 194 201 195 188 183 183 185 181 174 175 175 171 166 161 157 153 148 148 151 155 158 152 145 141 133 126 122 121 121 123 124 125 121 120 125 117 96 101 108 108 115 110 90 93 92 77 69 64 55 46
222 221 221 221 217 211 211 211 205 194 188 187 186 186 186 184 185 187 185 182 184 189 190 190 194 202 205 206 198 183 184 191 190 185 184 190 197 193 188 187 187 188 186 180 177 178 174 168 165 164 158 154 156 158 160 164 159 150 147 140 133 130 126 126 126 120 116 113 108 107 103 95 97 97 92 97 100 94 92 90 84 79 71 62 55
221 224 224 222 217 210 210 209 201 192 188 187 187 186 185 183 184 186 185 183 185 187 187 186 190 196 197 193 186 177 175 181 183 182 182 184 185 187 190 190 186 184 185 185 181 181 180 173 169 173 171 163 162 163 163 165 165 160 156 148 142 139 133 133 130 119 112 108 103 102 101 97 93 89 87 93 99 97 93 90 90 85 77 69 66
219 223 223 220 216 210 207 203 197 192 190 187 184 184 185 184 184 184 185 184 183 185 185 184 184 187 187 182 179 176 172 172 174 176 179 180 183 186 188 187 185 185 183 183 183 184 187 182 177 179 181 177 168 166 165 165 169 174 170 156 149 153 150 147 139 122 116 112 104 101 99 96 93 90 91 96 99 98 95 92 90 84 75 72 73
218 222 222 219 214 209 205 201 195 193 190 185 182 184 185 185 187 187 186 185 184 184 184 183 178 175 174 173 175 177 176 175 171 173 178 181 185 189 190 186 182 181 180 182 186 187 189 188 185 183 183 186 184 176 171 170 174 179 184 172 161 178 170 159 151 136 129 121 109 106 101 96 93 91 91 95 95 91 91 90 87 83 79 80 80
218 220 220 219 213 206 204 201 195 192 187 182 183 187 187 186 190 192 191 189 186 184 183 179 172 170 171 171 175 178 179 178 172 173 178 181 185 189 191 187 181 179 180 185 189 188 189 188 185 184 181 183 191 192 184 180 182 183 187 188 177 192 186 177 171 159 148 139 129 118 111 105 100 99 99 98 96 92 92 92 92 92 88 85 79
218 219 218 219 211 202 201 199 194 189 184 183 187 190 188 187 190 192 194 193 189 184 179 173 171 173 175 174 176 179 179 176 170 171 175 179 184 188 189 186 183 182 182 185 188 185 185 185 184 183 182 183 187 197 200 195 194 194 194 196 196 188 191 192 190 184 167 152 146 136 124 119 114 110 106 100 99 100 102 102 102 100 94 84 75
218 220 218 217 210 200 197 195 192 188 184 185 190 192 191 189 189 193 195 193 190 187 179 171 170 173 175 178 179 179 180 177 172 170 171 175 179 182 187 189 185 183 181 180 181 180 181 184 186 185 186 189 189 193 202 206 208 210 206 204 207 200 193 194 192 194 183 161 154 151 139 132 128 119 108 102 101 104 109 111 109 103 96 84 76
217 220 219 215 207 197 195 194 192 188 185 186 190 191 191 189 191 195 195 192 189 188 181 172 169 170 175 180 180 180 181 180 179 178 175 174 175 176 180 185 185 185 184 181 180 180 181 184 187 189 191 196 198 196 196 200 207 218 221 216 215 209 197 195 194 196 192 174 162 158 151 146 142 127 113 107 102 103 105 108 107 100 93 88 86
216 218 217 212 204 196 194 194 191 189 187 187 189 192 192 190 192 194 193 194 192 188 181 171 169 173 176 178 177 178 179 180 183 184 180 176 175 175 173 175 179 182 185 184 182 182 182 184 186 190 195 200 202 200 197 196 199 208 220 224 222 219 210 201 202 203 197 186 169 162 160 157 151 135 121 114 105 102 102 102 101 97 95 93 93
Height
1494 1498 1500 1502 1505 1507 1509 1510 1512 1513 1514 1515 1515 1516 1517 1518 1518 1519 1520 1521 1522 1523 1523 1524 1525 1525 1526 1527 1528 1529 1530 1530 1531 1532 1533 1534 1534 1535 1536 1536 1537 1537 1538 1538 1539 1539 1539 1540 1540 1540 1541 1541 1541 1542 1542 1542 1542 1542 1542 1542 1541 1541 1540 1540 1540 1540 1540 1541 1543 1543 1543 1543 1543 1544 1544 1544 1545 1545 1545 1546 1546 1546 1545 1546 1546
1491 1496 1499 1502 1504 1507 1509 1511 1513 1514 1515 1515 1516 1517 1518 1518 1519 1520 1521 1522 1523 1523 1524 1525 1525 1526 1527 1528 1529 1529 1530 1531 1532 1533 1534 1535 1535 1536 1537 1537 1538 1538 1538 1539 1540 1540 1541 1541 1541 1542 1542 1542 1543 1543 1543 1543 1543 1543 1543 1543 1542 1542 1542 1541 1541 1541 1541 1542 1543 1544 1544 1544 1545 1545 1545 1546 1546 1546 1547 1547 1547 1547 1547 1547 1548
1491 1495 1498 1502 1505 1507 1509 1512 1513 1514 1515 1516 1517 1518 1519 1519 1520 1520 1521 1522 1523 1524 1525 1525 1526 1527 1527 1529 1529 1530 1531 1532 1533 1534 1535 1535 1536 1537 1538 1538 1539 1539 1539 1540 1541 1541 1542 1542 1543 1543 1543 1544 1544 1544 1544 1545 1545 1545 1544 1544 1544 1543 1543 1543 1543 1543 1543 1543 1543 1544 1544 1545 1546 1546 1547 1547 1547 1547 1548 1548 1549 1549 1549 1549 1549
1492 1495 1498 1502 1505 1508 1510 1512 1514 1515 1516 1517 1518 1519 1520 1520 1521 1521 1522 1523 1524 1525 1526 1526 1527 1527 1528 1529 1530 1531 1532 1533 1534 1535 1536 1536 1537 1538 1539 1539 1539 1540 1540 1541 1542 1542 1543 1543 1544 1544 1544 1545 1545 1545 1546 1546 1546 1546 1545 1545 1545 1545 1544 1544 1544 1544 1544 1544 1544 1544 1544 1545 1546 1547 1547 1548 1548 1548 1549 1549 1550 1550 1550 1551 1551
1493 1495 1498 1501 1505 1508 1510 1513 1514 1516 1517 1518 1519 1520 1520 1521 1522 1522 1523 1524 1525 1526 1526 1527 1527 1528 1529 1530 1531 1532 1533 1534 1535 1536 1537 1537 1538 1539 1539 1540 1540 1541 1541 1541 1542 1543 1543 1544 1545 1545 1545 1546 1546 1546 1547 1547 1547 1547 1547 1547 1547 1546 1546 1546 1546 1545 1545 1546 1546 1545 1545 1546 1547 1548 1548 1549 1549 1550 1550 1551 1551 1551 1552 1552 1552
1494 1496 1498 1501 1505 1507 1510 1513 1515 1517 1518 1519 1520 1521 1521 1522 1523 1523 1524 1525 1526 1527 1527 1528 1528 1529 1530 1530 1531 1533 1534 1535 1536 1537 1538 1538 1539 1540 1540 1540 1541 1541 1542 1542 1543 1543 1544 1545 1545 1546 1546 1547 1547 1548 1548 1548 1548 1548 1548 1548 1548 1548 1547 1547 1547 1547 1547 1547 1547 1546 1546 1546 1547 1548 1549 1550 1550 1551 1551 1552 1552 1553 1553 1553 1553
1495 1497 1499 1502 1504 1507 1511 1513 1515 1517 1518 1520 1521 1522 1522 1522 1523 1524 1525 1526 1527 1528 1528 1529 1530 1530 1531 1531 1532 1534 1535 1536 1536 1537 1538 1538 1539 1540 1540 1541 1542 1542 1543 1543 1544 1544 1545 1545 1546 1546 1547 1547 1548 1548 1549 1549 1550 1550 1550 1549 1550 1550 1549 1549 1549 1548 1548 1548 1548 1548 1547 1547 1547 1548 1549 1550 1551 1552 1553 1553 1553 1554 1554 1554 1554
1496 1498 1500 1503 1505 1508 1511 1513 1516 1518 1519 1520 1522 1522 1523 1523 1524 1525 1526 1527 1528 1529 1529 1530 1531 1532 1533 1533 1534 1535 1535 1536 1537 1537 1538 1539 1540 1540 1541 1542 1542 1542 1543 1544 1545 1545 1545 1546 1546 1547 1547 1548 1549 1549 1550 1551 1551 1551 1551 1551 1551 1551 1551 1550 1550 1550 1550 1550 1549 1549 1549 1548 1548 1549 1550 1551 1552 1553 1553 1554 1554 1555 1555 1556 1556
1498 1499 1502 1504 1506 1509 1511 1514 1516 1518 1520 1520 1522 1523 1523 1524 1525 1526 1527 1528 1529 1530 1530 1531 1532 1533 1534 1535 1535 1535 1536 1537 1537 1538 1539 1539 1540 1541 1542 1543 1543 1543 1544 1545 1545 1546 1546 1546 1547 1547 1548 1549 1549 1551 1552 1552 1552 1552 1552 1552 1552 1552 1552 1552 1552 1551 1551 1551 1551 1551 1551 1550 1550 1550 1551 1552 1552 1553 1554 1555 1555 1556 1556 1557 1557
1499 1501 1503 1505 1507 1510 1512 1515 1517 1518 1520 1521 1522 1523 1524 1525 1525 1527 1528 1528 1529 1530 1531 1532 1533 1534 1535 1535 1536 1536 1537 1537 1538 1539 1539 1540 1541 1542 1543 1543 1544 1544 1545 1545 1546 1546 1547 1547 1548 1548 1549 1549 1550 1551 1553 1553 1553 1553 1553 1553 1553 1553 1553 1553 1553 1553 1553 1553 1553 1553 1553 1552 1552 1552 1552 1553 1553 1554 1555 1555 1556 1557 1557 1557 1557
1500 1502 1504 1506 1509 1511 1513 1515 1517 1518 1520 1521 1522 1523 1524 1525 1526 1527 1528 1529 1530 1531 1531 1532 1533 1534 1535 1536 1536 1537 1537 1538 1539 1539 1540 1540 1541 1542 1543 1543 1544 1544 1545 1546 1546 1547 1547 1548 1548 1549 1549 1550 1551 1552 1554 1554 1554 1554 1555 1555 1554 1554 1554 1555 1555 1555 1554 1554 1554 1554 1554 1554 1554 1554 1554 1554 1554 1555 1556 1556 1557 1557 1557 1558 1558
1501 1503 1505 1507 1509 1511 1513 1515 1517 1518 1520 1521 1522 1523 1524 1525 1526 1527 1528 1529 1530 1531 1532 1533 1533 1535 1536 1536 1537 1537 1538 1538 1539 1540 1540 1541 1542 1542 1543 1544 1544 1545 1545 1546 1547 1547 1548 1548 1549 1549 1550 1550 1551 1553 1554 1555 1555 1555 1556 1556 1556 1556 1556 1556 1556 1556 1555 1556 1556 1556 1556 1556 1556 1556 1556 1556 1556 1556 1557 1557 1557 1558 1558 1558 1558
1501 1503 1506 1508 1510 1511 1513 1515 1517 1518 1519 1521 1522 1523 1524 1526 1527 1528 1529 1529 1531 1532 1533 1534 1534 1535 1536 1537 1537 1538 1538 1539 1540 1541 1541 1542 1542 1543 1544 1544 1545 1545 1546 1546 1547 1548 1548 1549 1549 1550 1550 1551 1552 1553 1554 1555 1556 1556 1557 1557 1557 1557 1557 1557 1557 1557 1557 1557 1557 1558 1558 1558 1558 1558 1558 1558 1558 1558 1558 1558 1558 1559 1559 1559 1559
1502 1504 1506 1508 1510 1511 1513 1515 1517 1518 1519 1521 1522 1523 1525 1526 1527 1528 1529 1530 1531 1532 1533 1534 1535 1536 1536 1537 1538 1538 1539 1540 1541 1541 1542 1543 1543 1544 1545 1545 1545 1546 1547 1547 1547 1548 1549 1549 1550 1550 1551 1551 1552 1553 1554 1556 1556 1557 1557 1558 1558 1558 1558 1559 1559 1558 1558 1558 1558 1559 1559 1559 1559 1559 1559 1560 1559 1560 1560 1560 1560 1560 1560 1560 1560
1502 1504 1505 1507 1509 1511 1513 1515 1517 1518 1519 1521 1522 1523 1525 1526 1527 1528 1529 1531 1532 1533 1534 1535 1536 1536 1537 1538 1539 1539 1540 1541 1542 1542 1543 1543 1544 1545 1545 1546 1546 1547 1547 1548 1548 1549 1550 1550 1551 1551 1552 1552 1552 1553 1555 1556 1557 1557 1558 1558 1559 1559 1559 1560 1560 1560 1560 1559 1559 1560 1560 1561 1561 1561 1561 1561 1561 1561 1561 1561 1561 1561 1562 1561 1561
1503 1504 1505 1507 1509 1511 1513 1515 1517 1518 1520 1521 1522 1524 1525 1526 1528 1529 1530 1531 1532 1533 1534 1535 1536 1537 1538 1539 1539 1540 1541 1542 1542 1543 1544 1544 1545 1546 1546 1547 1547 1548 1548 1549 1549 1550 1550 1551 1551 1552 1552 1552 1553 1554 1555 1556 1557 1558 1558 1559 1559 1560 1560 1561 1561 1561 1561 1561 1561 1561 1561 1562 1562 1562 1562 1563 1563 1563 1563 1562 1562 1563 1563 1563 1563
1503 1504 1506 1507 1509 1511 1513 1515 1517 1519 1520 1522 1523 1524 1526 1527 1528 1529 1530 1531 1533 1534 1535 1536 1537 1538 1539 1539 1540 1541 1542 1543 1543 1544 1545 1545 1546 1547 1547 1548 1549 1548 1549 1549 1549 1550 1551 1551 1552 1553 1553 1553 1553 1554 1555 1556 1557 1558 1559 1560 1560 1560 1561 1562 1562 1562 1562 1562 1562 1562 1562 1563 1563 1564 1564 1564 1564 1564 1564 1564 1564 1564 1564 1564 1564
1503 1505 1506 1508 1510 1512 1514 1516 1517 1519 1520 1522 1523 1525 1526 1527 1528 1530 1531 1532 1533 1534 1536 1537 1538 1539 1539 1540 1541 1542 1543 1543 1544 1545 1546 1546 1547 1548 1548 1549 1549 1550 1550 1550 1550 1550 1551 1551 1552 1553 1553 1553 1554 1555 1556 1557 1558 1559 1559 1560 1561 1561 1561 1562 1563 1563 1563 1563 1563 1563 1564 1564 1564 1565 1565 1565 1566 1566 1566 1566 1565 1565 1565 1565 1565
1503 1505 1507 1509 1511 1512 1514 1515 1517 1518 1520 1522 1524 1525 1527 1528 1529 1530 1531 1533 1534 1535 1536 1537 1538 1539 1540 1541 1542 1543 1544 1544 1545 1546 1547 1548 1548 1548 1548 1549 1550 1550 1551 1551 1551 1551 1551 1551 1552 1553 1554 1554 1554 1555 1557 1558 1559 1560 1560 1561 1561 1562 1562 1563 1563 1564 1564 1564 1564 1564 1564 1565 1565 1566 1566 1566 1567 1567 1567 1567 1567 1567 1567 1567 1566
1505 1507 1508 1510 1511 1512 1514 1515 1517 1518 1520 1522 1524 1525 1527 1528 1530 1531 1532 1533 1535 1536 1537 1538 1539 1540 1541 1542 1542 1543 1544 1545 1546 1546 1547 1548 1549 1549 1549 1550 1550 1551 1551 1551 1551 1552 1552 1552 1553 1554 1555 1555 1555 1556 1557 1559 1560 1560 1561 1561 1562 1562 1563 1563 1564 1564 1564 1564 1564 1565 1565 1566 1566 1566 1567 1567 1567 1568 1568 1568 1568 1568 1568 1568 1568
1506 1508 1509 1510 1511 1513 1514 1515 1517 1519 1521 1522 1524 1526 1527 1528 1530 1531 1533 1534 1535 1536 1537 1539 1539 1540 1541 1542 1543 1544 1545 1546 1546 1547 1547 1548 1549 1549 1550 1551 1551 1551 1552 1552 1552 1552 1553 1553 1554 1555 1555 1556 1556 1557 1558 1559 1560 1561 1562 1562 1563 1563 1563 1564 1564 1565 1565 1565 1565 1565 1566 1566 1567 1567 1567 1568 1568 1568 1569 1569 1569 1569 1569 1569 1569
1506 1508 1509 1510 1511 1513 1514 1516 1517 1519 1521 1523 1524 1526 1527 1528 1530 1531 1532 1534 1535 1536 1537 1539 1540 1541 1542 1543 1544 1544 1545 1546 1547 1547 1548 1549 1549 1550 1551 1551 1551 1552 1552 1553 1553 1553 1554 1554 1555 1556 1556 1556 1557 1558 1559 1560 1561 1562 1563 1563 1564 1564 1564 1565 1565 1566 1566 1566 1566 1566 1566 1567 1567 1567 1568 1568 1569 1569 1569 1570 1570 1570 1570 1570 1570
1505 1507 1508 1510 1511 1513 1514 1516 1517 1519 1521 1523 1524 1525 1527 1528 1530 1531 1532 1534 1535 1537 1538 1539 1540 1541 1542 1543 1544 1545 1546 1547 1547 1548 1548 1549 1550 1550 1551 1551 1552 1552 1553 1553 1554 1555 1555 1555 1556 1556 1556 1557 1558 1559 1560 1561 1562 1562 1563 1564 1565 1565 1565 1566 1566 1566 1567 1567 1567 1567 1567 1567 1567 1568 1568 1569 1569 1570 1570 1570 1570 1571 1571 1571 1571
1503 1505 1507 1509 1511 1513 1514 1516 1517 1519 1521 1523 1524 1525 1527 1528 1530 1531 1533 1534 1536 1537 1539 1540 1541 1542 1543 1544 1545 1545 1546 1547 1548 1548 1549 1550 1550 1551 1551 1552 1552 1552 1553 1554 1555 1555 1556 1556 1556 1557 1557 1557 1558 1559 1560 1561 1562 1563 1564 1565 1566 1566 1566 1567 1567 1567 1568 1568 1567 1567 1567 1567 1568 1568 1569 1569 1570 1570 1571 1571 1571 1571 1571 1571 1572
1502 1504 1506 1508 1511 1512 1514 1516 1517 1519 1521 1523 1524 1525 1527 1528 1530 1532 1533 1535 1537 1538 1539 1541 1542 1543 1544 1544 1545 1546 1546 1547 1548 1549 1550 1550 1551 1551 1552 1552 1553 1553 1554 1554 1555 1555 1556 1556 1557 1557 1557 1557 1559 1560 1561 1563 1564 1564 1565 1566 1567 1567 1567 1568 1568 1568 1568 1568 1568 1568 1568 1568 1568 1569 1569 1570 1570 1571 1571 1572 1572 1572 1572 1572 1572
1503 1504 1506 1508 1511 1512 1514 1515 1517 1520 1521 1522 1523 1525 1527 1528 1530 1532 1534 1536 1538 1539 1540 1541 1542 1543 1544 1545 1546 1546 1547 1548 1549 1550 1550 1551 1552 1552 1552 1552 1553 1554 1554 1555 1555 1556 1556 1556 1557 1557 1557 1558 1559 1560 1562 1563 1564 1565 1566 1566 1567 1567 1568 1568 1568 1569 1569 1569 1569 1569 1569 1569 1569 1570 1570 1570 1571 1571 1572 1572 1573 1573 1573 1573 1573
1503 1505 1508 1509 1511 1513 1514 1515 1517 1519 1521 1522 1523 1524 1526 1528 1530 1532 1535 1537 1538 1540 1541 1542 1543 1544 1545 1546 1546 1547 1548 1549 1549 1550 1551 1552 1552 1552 1553 1553 1553 1554 1555 1555 1556 1556 1556 1557 1557 1557 1558 1558 1560 1561 1563 1564 1565 1565 1566 1567 1567 1568 1568 1569 1569 1569 1569 1570 1570 1570 1570 1570 1570 1571 1571 1571 1571 1571 1572 1573 1573 1573 1573 1573 1574
1503 1505 1508 1510 1512 1513 1514 1516 1517 1518 1520 1520 1522 1524 1526 1528 1530 1532 1535 1537 1539 1540 1541 1542 1543 1544 1545 1546 1547 1548 1548 1549 1550 1551 1552 1552 1553 1553 1553 1553 1554 1555 1556 1556 1556 1557 1557 1557 1558 1558 1558 1559 1561 1562 1563 1564 1565 1566 1567 1567 1568 1569 1570 1570 1570 1570 1570 1570 1571 1571 1571 1571 1571 1571 1572 1571 1571 1572 1572 1573 1574 1574 1574 1574 1574
1504 1506 1509 1512 1514 1515 1515 1516 1517 1518 1518 1519 1521 1523 1525 1527 1530 1532 1534 1536 1538 1540 1541 1542 1543 1544 1545 1546 1547 1548 1549 1550 1551 1552 1552 1553 1553 1553 1554 1554 1555 1556 1556 1557 1557 1558 1558 1558 1558 1559 1560 1561 1562 1563 1564 1564 1566 1567 1568 1568 1569 1570 1571 1571 1571 1571 1571 1571 1572 1572 1572 1572 1572 1572 1572 1572 1572 1572 1573 1574 1574 1575 1575 1575 1575
1506 1507 1510 1513 1516 1518 1518 1518 1518 1519 1518 1519 1521 1523 1525 1527 1529 1531 1533 1536 1538 1539 1541 1542 1544 1545 1546 1546 1547 1548 1549 1550 1551 1552 1553 1553 1554 1554 1555 1555 1556 1556 1557 1557 1558 1558 1558 1559 1559 1560 1561 1562 1563 1563 1564 1565 1566 1568 1568 1569 1570 1571 1571 1572 1572 1572 1572 1572 1573 1573 1573 1573 1573 1573 1573 1573 1573 1574 1574 1575 1575 1576 1576 1575 1575
1509 1509 1509 1512 1516 1519 1519 1520 1520 1520 1520 1520 1522 1523 1524 1526 1528 1530 1533 1535 1537 1539 1541 1542 1543 1545 1546 1547 1547 1548 1549 1550 1551 1552 1553 1554 1554 1555 1555 1556 1556 1557 1557 1558 1558 1559 1559 1559 1560 1561 1562 1563 1563 1564 1565 1566 1567 1568 1569 1569 1570 1571 1571 1572 1572 1573 1573 1573 1573 1573 1573 1573 1573 1574 1574 1574 1574 1575 1576 1576 1576 1576 1576 1577 1576
1506 1508 1509 1510 1514 1517 1518 1521 1522 1522 1521 1521 1522 1523 1524 1526 1528 1530 1532 1535 1537 1539 1540 1542 1543 1544 1546 1547 1547 1548 1549 1550 1551 1552 1553 1554 1554 1555 1556 1556 1557 1557 1558 1558 1559 1559 1560 1560 1561 1562 1562 1563 1564 1564 1565 1566 1567 1568 1569 1569 1570 1571 1572 1572 1573 1573 1573 1574 1574 1574 1574 1574 1574 1574 1575 1575 1575 1575 1577 1577 1578 1578 1578 1578 1578
1498 1499 1501 1502 1506 1510 1514 1518 1519 1521 1522 1522 1522 1523 1525 1526 1528 1530 1532 1534 1536 1539 1540 1542 1543 1544 1545 1546 1548 1549 1549 1550 1551 1552 1553 1553 1554 1555 1556 1556 1557 1557 1558 1558 1559 1560 1560 1560 1561 1562 1563 1563 1564 1565 1566 1566 1567 1568 1568 1569 1570 1570 1571 1572 1572 1573 1574 1574 1575 1575 1575 1575 1575 1575 1575 1576 1576 1576 1577 1578 1579 1579 1579 1579 1579
1493 1494 1494 1495 1499 1502 1506 1510 1514 1517 1521 1521 1522 1523 1525 1526 1528 1530 1532 1534 1536 1538 1540 1542 1543 1544 1545 1546 1548 1549 1549 1550 1551 1552 1552 1553 1554 1555 1555 1556 1557 1557 1558 1558 1559 1559 1560 1560 1561 1562 1563 1563 1564 1565 1565 1566 1566 1567 1568 1569 1569 1570 1571 1573 1573 1573 1574 1574 1575 1575 1575 1575 1576 1576 1576 1577 1577 1578 1578 1579 1580 1580 1580 1580 1581
1493 1494 1494 1496 1499 1500 1502 1506 1510 1515 1518 1520 1521 1523 1525 1526 1528 1530 1532 1534 1536 1538 1540 1542 1543 1544 1545 1546 1547 1548 1549 1550 1550 1551 1552 1553 1554 1555 1555 1556 1557 1557 1558 1558 1559 1559 1560 1560 1561 1562 1563 1563 1564 1565 1565 1566 1566 1567 1568 1569 1569 1570 1572 1573 1573 1574 1574 1575 1575 1576 1576 1576 1576 1577 1577 1578 1578 1579 1580 1580 1581 1581 1581 1582 1582
1495 1495 1496 1499 1503 1505 1506 1507 1510 1513 1516 1519 1520 1522 1524 1527 1529 1530 1532 1534 1536 1538 1540 1542 1543 1544 1545 1546 1547 1548 1548 1549 1550 1551 1552 1553 1554 1555 1555 1556 1556 1557 1558 1558 1559 1560 1560 1561 1561 1562 1563 1563 1564 1564 1565 1565 1566 1567 1568 1569 1570 1571 1572 1574 1574 1574 1575 1575 1575 1576 1577 1577 1577 1578 1578 1579 1579 1580 1581 1581 1582 1582 1582 1582 1582
1496 1497 1498 1500 1504 1507 1508 1509 1510 1511 1515 1518 1519 1521 1524 1527 1529 1531 1532 1534 1536 1538 1540 1541 1543 1544 1545 1546 1546 1547 1547 1548 1549 1551 1552 1553 1554 1555 1555 1556 1556 1557 1557 1558 1559 1560 1560 1561 1561 1562 1562 1563 1563 1564 1565 1566 1566 1567 1568 1569 1570 1571 1572 1573 1574 1575 1575 1575 1576 1577 1577 1578 1578 1579 1579 1580 1580 1581 1582 1582 1582 1583 1583 1583 1582
1496 1497 1499 1501 1504 1506 1507 1508 1509 1511 1515 1517 1519 1521 1524 1526 1529 1531 1532 1534 1536 1538 1539 1541 1542 1544 1544 1545 1546 1546 1547 1547 1548 1550 1551 1552 1553 1554 1555 1555 1556 1556 1557 1558 1559 1560 1560 1561 1562 1562 1562 1563 1563 1564 1565 1566 1566 1567 1568 1569 1570 1571 1572 1573 1574 1575 1576 1576 1577 1577 1578 1579 1579 1579 1580 1580 1581 1582 1582 1582 1583 1583 1583 1583 1583
1495 1497 1499 1502 1505 1507 1508 1509 1510 1511 1514 1516 1518 1521 1523 1526 1528 1530 1532 1534 1536 1538 1539 1541 1542 1543 1544 1544 1545 1546 1546 1546 1548 1549 1551 1552 1553 1553 1554 1555 1555 1556 1557 1558 1559 1560 1560 1561 1562 1562 1562 1562 1563 1564 1565 1566 1567 1568 1569 1570 1571 1572 1573 1574 1575 1575 1576 1577 1577 1578 1578 1579 1579 1580 1580 1581 1581 1582 1582 1582 1583 1583 1583 1583 1583
1494 1497 1499 1502 1504 1506 1508 1509 1510 1512 1514 1515 1518 1520 1522 1524 1527 1529 1531 1533 1536 1537 1539 1540 1542 1543 1544 1544 1545 1546 1546 1546 1547 1549 1550 1551 1552 1553 1554 1555 1555 1556 1557 1558 1559 1560 1561 1561 1562 1562 1562 1562 1563 1564 1565 1566 1567 1568 1569 1570 1571 1573 1574 1574 1575 1576 1577 1577 1577 1578 1578 1579 1579 1580 1580 1581 1582 1582 1582 1582 1583 1583 1583 1583 1583
1492 1496 1498 1501 1503 1505 1507 1508 1510 1511 1513 1514 1516 1519 1521 1523 1526 1528 1531 1533 1535 1537 1538 1540 1541 1542 1543 1543 1544 1545 1545 1546 1547 1548 1549 1550 1552 1553 1553 1554 1555 1556 1556 1558 1558 1559 1561 1561 1562 1562 1563 1563 1563 1564 1565 1566 1567 1568 1569 1571 1572 1573 1574 1575 1576 1576 1577 1577 1578 1578 1578 1579 1579 1580 1580 1581 1581 1582 1582 1582 1583 1583 1583 1583 1583
1491 1494 1497 1499 1502 1504 1506 1507 1509 1511 1512 1514 1516 1518 1520 1522 1525 1528 1530 1533 1535 1537 1538 1540 1541 1542 1542 1543 1544 1545 1545 1546 1547 1548 1549 1550 1551 1552 1553 1554 1555 1555 1556 1557 1558 1559 1560 1561 1562 1562 1563 1563 1563 1564 1565 1566 1567 1568 1569 1570 1572 1574 1575 1576 1576 1577 1577 1578 1578 1579 1579 1579 1579 1580 1581 1581 1582 1582 1582 1582 1583 1583 1583 1583 1583
1490 1492 1495 1497 1500 1503 1505 1506 1508 1510 1512 1514 1515 1517 1520 1523 1525 1528 1531 1533 1535 1537 1538 1539 1540 1541 1542 1543 1544 1544 1545 1546 1547 1548 1548 1549 1550 1551 1553 1554 1554 1555 1556 1556 1557 1558 1560 1561 1562 1563 1563 1564 1564 1565 1565 1567 1567 1568 1569 1570 1572 1574 1576 1577 1577 1577 1578 1578 1579 1579 1579 1580 1580 1580 1581 1581 1582 1582 1582 1582 1583 1583 1583 1583 1584
1488 1490 1493 1495 1498 1501 1503 1505 1507 1509 1511 1513 1515 1518 1520 1523 1526 1528 1531 1533 1535 1536 1538 1539 1540 1541 1542 1542 1543 1544 1545 1546 1547 1547 1548 1549 1550 1551 1552 1553 1554 1555 1556 1557 1557 1558 1559 1560 1562 1563 1563 1564 1564 1565 1566 1567 1567 1568 1569 1570 1573 1574 1575 1577 1577 1578 1579 1579 1580 1580 1580 1580 1580 1581 1581 1581 1582 1582 1582 1582 1583 1583 1584 1584 1584
1487 1489 1491 1494 1497 1499 1501 1504 1506 1509 1511 1513 1516 1518 1520 1523 1525 1528 1530 1532 1534 1536 1537 1538 1539 1540 1541 1542 1543 1544 1545 1545 1546 1547 1548 1549 1550 1551 1552 1553 1554 1555 1555 1557 1557 1558 1559 1560 1561 1562 1563 1564 1564 1564 1565 1566 1567 1568 1569 1570 1572 1574 1575 1576 1577 1578 1579 1580 1580 1580 1581 1581 1581 1581 1581 1582 1582 1582 1583 1583 1583 1584 1584 1584 1584
1485 1487 1490 1493 1495 1498 1500 1503 1506 1508 1511 1513 1516 1518 1520 1523 1524 1526 1528 1531 1533 1535 1537 1538 1540 1540 1541 1542 1543 1543 1544 1545 1546 1547 1548 1549 1550 1550 1551 1552 1553 1554 1555 1556 1557 1558 1559 1560 1561 1562 1563 1564 1565 1565 1565 1566 1567 1568 1569 1570 1571 1572 1573 1575 1576 1577 1579 1580 1581 1581 1581 1581 1582 1582 1582 1582 1583 1583 1583 1583 1583 1584 1584 1584 1585
1483 1486 1488 1492 1494 1497 1500 1503 1506 1509 1511 1514 1516 1518 1520 1522 1524 1526 1529 1531 1533 1535 1537 1539 1540 1541 1541 1542 1543 1544 1545 1545 1546 1547 1548 1549 1550 1550 1551 1552 1553 1554 1555 1556 1557 1558 1559 1560 1561 1562 1563 1564 1564 1565 1565 1566 1566 1567 1569 1570 1570 1571 1572 1573 1575 1576 1578 1580 1581 1582 1582 1582 1582 1582 1582 1583 1583 1583 1583 1583 1584 1584 1584 1584 1585
1482 1484 1487 1491 1494 1496 1499 1503 1506 1509 1512 1514 1516 1518 1520 1522 1524 1527 1529 1531 1534 1536 1537 1539 1540 1540 1541 1542 1543 1544 1545 1545 1546 1547 1548 1549 1550 1550 1551 1552 1553 1554 1555 1556 1557 1558 1559 1560 1560 1561 1562 1563 1564 1565 1565 1566 1567 1567 1568 1569 1570 1571 1572 1573 1574 1575 1576 1578 1581 1582 1582 1583 1583 1583 1583 1583 1583 1584 1584 1584 1584 1584 1584 1585 1585
1481 1483 1487 1490 1493 1496 1499 1503 1506 1509 1512 1514 1516 1518 1520 1522 1525 1527 1529 1532 1534 1536 1537 1538 1539 1540 1541 1542 1543 1545 1545 1546 1546 1547 1548 1549 1550 1550 1551 1552 1553 1554 1555 1556 1557 1557 1558 1559 1560 1561 1561 1562 1563 1564 1565 1566 1567 1568 1568 1569 1570 1571 1572 1573 1574 1575 1576 1577 1580 1581 1582 1582 1583 1583 1583 1584 1584 1584 1584 1584 1585 1585 1585 1585 1585
1480 1483 1487 1490 1493 1497 1500 1503 1506 1509 1512 1515 1517 1519 1521 1523 1525 1527 1529 1532 1534 1536 1537 1538 1539 1540 1541 1543 1544 1545 1546 1546 1547 1547 1548 1549 1550 1551 1551 1552 1553 1554 1554 1555 1556 1557 1558 1559 1560 1560 1561 1562 1562 1563 1564 1565 1566 1567 1568 1569 1570 1571 1572 1573 1574 1575 1576 1577 1578 1580 1581 1582 1583 1583 1584 1584 1584 1584 1584 1585 1585 1585 1585 1585 1585
1480 1483 1486 1489 1493 1497 1500 1503 1506 1509 1512 1515 1517 1519 1521 1523 1525 1528 1530 1532 1534 1535 1536 1537 1539 1540 1541 1543 1544 1545 1546 1546 1547 1547 1548 1549 1550 1550 1551 1552 1553 1554 1554 1555 1556 1557 1558 1559 1559 1560 1560 1561 1562 1563 1564 1564 1565 1567 1568 1569 1570 1571 1572 1572 1573 1574 1576 1577 1578 1580 1581 1582 1583 1583 1584 1584 1584 1585 1585 1585 1585 1585 1586 1586 1586